Torna al catalogo

KUIPER-00085

AttivoComunicazioniLEO
NORAD 64831·PAYLOAD·🇺🇸 United States

Lanciato Jul 16, 2025 da Cape Canaveral Space Force Station

Loading…

Prossimi Passaggi (prossime 24 ore)

TLE

AggiornatoSource: CelesTrak SupGP

Epoca: Sep 14, 2026, 22:53 UTC

1 64831C 25151R   26257.95353009  .00001111  00000+0  14544-3 0  2573
2 64831  51.9017 171.2572 0000916  90.6416 243.5107 14.79924121    17

Traccia KUIPER-00085 in tempo reale con AllMySat

Download on the App Store